Regional Weather Roundup
Issued by NWS

Home | Current Version | Previous Version | Graphics & Text | Print | Product List | Glossary On
Versions: 1 2 3 4 5 6 7 8 9 10 11 12 13 14 15 16 17 18 19 20 21 22 23 24 25 26 27 28 29 30 31 32 33 34 35 36 37 38 39 40 41 42 43 44 45 46 47 48 49 50
000
ASUS43 KDMX 180201
RWRIA

WEATHER ROUNDUP FOR IOWA
NATIONAL WEATHER SERVICE DES MOINES IA
800 PM CST FRI NOV 17 2017

NOTE: "FAIR" INDICATES FEW OR NO CLOUDS BELOW 12,000 FEET WITH NO
SIGNIFICANT WEATHER AND/OR OBSTRUCTIONS TO VISIBILITY.

* - THESE STATIONS ARE NOT NWS STATIONS...THUS NOT UNDER NWS
QUALITY CONTROL.  THEY ALSO DO NOT REPORT WEATHER SUCH
AS PRECIPITATION OR FOG.

IAZ001>003-012>014-020>022-031>034-043>046-180300-
   NORTHWEST IOWA

CITY           SKY/WX    TMP DP  RH WIND       PRES   REMARKS
CARROLL *      FOG       48  48 100 N3        29.57S VSB<1/4
CHEROKEE *     LGT RAIN  44  39  83 N8        29.61R
DENISON *      CLOUDY    48  48 100 N7        29.58F FOG
LE MARS *      MOCLDY    43  39  87 N13       29.63R
ORANGE CITY *  LGT RAIN  43  39  87 N10       29.63R
SHELDON *      MOCLDY    39  36  87 N15       29.63R WCI  31
SIOUX CITY     LGT RAIN  48  40  73 N13       29.60R
SPENCER        CLOUDY    42  38  85 N10       29.61S
STORM LAKE *   MOCLDY    45  41  87 NE12      29.57F
$$

IAZ055>058-069>071-079>083-090>094-180300-
   SOUTHWEST IOWA

CITY           SKY/WX    TMP DP  RH WIND       PRES   REMARKS
ATLANTIC *     FOG       52  50  93 N5        29.56R VSB 1/2
AUDUBON *      FOG       48  46  93 CALM      29.56F VSB 1/4
CLARINDA *     CLOUDY    55  55 100 N10         N/A  FOG
COUNCIL BLFS * FOG       52  52 100 N9        29.54S VSB 1/4
CRESTON *      FOG       52  52 100 N7        29.55S VSB<1/4
HARLAN  *      FOG       50  50 100 N6        29.59S VSB 1/4
LAMONI         FOG       54  54 100 E3        29.52F VSB 1/4
RED OAK *      FOG       54  54 100 NE7       29.54S VSB 1/2
SHENANDOAH *   CLOUDY    55  55 100 N9        29.53S FOG
$$

IAZ047>049-059>061-072>074-084-180300-
   CENTRAL IOWA

CITY           SKY/WX    TMP DP  RH WIND       PRES   REMARKS
AMES           FOG       45  45 100 N5        29.58R VSB 1
ANKENY *       FOG       46  46 100 N7        29.58R VSB 1/2
BOONE *        FOG       45  45 100 CALM      29.56S VSB 1/4
CHARITON *     FOG       54  54 100 CALM      29.54R VSB 1/4
DES MOINES     DRZL/FOG  50  49  96 N6        29.56R VSB 1/4
GRINNELL*      LGT RAIN  45  44  97 CALM      29.56S VSB 1/4
KNOXVILLE *    CLOUDY    52  50  93 CALM      29.53S FOG
MARSHALLTOWN   FOG       43  43 100 CALM      29.57R VSB 1
NEWTON *       FOG       46  46 100 CALM      29.56R VSB<1/4
PELLA *        CLOUDY    49  48  97 CALM      29.56S FOG
PERRY *        FOG       49  48  99 N3        29.57S VSB 3/4
$$

IAZ004>006-015-016-023>025-035-036-180300-
   NORTH CENTRAL IOWA

CITY           SKY/WX    TMP DP  RH WIND       PRES   REMARKS
ALGONA *       CLOUDY    43  43 100 NE6       29.59F FOG
CLARION *      FOG       43  43 100 N7        29.60R VSB 1/4
ESTHERVILLE    CLOUDY    39  38  96 NE13      29.58F WCI  31
FORT DODGE *   FOG       44  44 100 N7        29.59R VSB 3/4
MASON CITY     LGT RAIN  39  38  96 N6        29.61S VSB 1/2 WCI  35
FOREST CITY *  RAIN      41  41 100 N5        29.60F
WEBSTER CITY * FOG       45  45 100 N7        29.57R VSB<1/4
IOWA FALLS *   FOG       43  42  97 N3        29.59S VSB 1/4
$$

IAZ007>011-017>019-026>030-037>042-050>054-066-180300-
   NORTHEAST IOWA

CITY           SKY/WX    TMP DP  RH WIND       PRES   REMARKS
CEDAR RAPIDS   CLOUDY    44  43  96 CALM      29.56S FOG
CHARLES CITY * FOG       39  39 100 CALM      29.60S VSB 1/2
CLINTON *      LGT RAIN  42  42 100 SE6       29.58F FOG
DECORAH *      CLOUDY    37  37 100 CALM      29.59R FOG
DUBUQUE        CLOUDY    40  39  97 CALM      29.58S FOG
MONTICELLO *   FOG       43  41  93 CALM      29.57F VSB 1
OELWEIN *      FOG       39  39 100 CALM      29.58S VSB 1/4
WATERLOO       FOG       40  39  97 NE3       29.58S VSB 1
$$

IAZ064-065-067-068-078-180300-
   EAST CENTRAL IOWA

CITY           SKY/WX    TMP DP  RH WIND       PRES   REMARKS
DAVENPORT      CLOUDY    45  44  97 S5        29.60F FOG
IOWA CITY      CLOUDY    46  44  93 CALM      29.58F FOG
MT. PLEASANT * CLOUDY    48  46  93 S7        29.56S
MUSCATINE *    CLOUDY    46  45  93 CALM      29.57F
QUAD CITIES    CLOUDY    49  44  83 S6        29.57S HAZE
$$

IAZ062-063-075>077-085>089-095>099-180300-
   SOUTHEAST IOWA

CITY           SKY/WX    TMP DP  RH WIND       PRES   REMARKS
BURLINGTON     CLOUDY    52  47  83 S8        29.56F
FAIRFIELD *    CLOUDY    50  46  87 SE5       29.55S
FORT MADISON * CLOUDY    52  48  87 S10       29.56F
KEOKUK *       CLOUDY    55  48  76 S6G13     29.55S
OSKALOOSA *    CLOUDY    46  46  97 SE7       29.54F FOG
OTTUMWA        CLOUDY    49  46  90 S3        29.54F
WASHINGTON *   CLOUDY    48  48 100 S6        29.56F FOG
$$

ABBREVIATIONS USED IN REMARKS
   TC - TEMPERATURES IN CELSIUS
  WCI - WIND CHILL INDEX
   HX - HEAT INDEX
  VSB - VISIBILITY
$$




USA.gov is the U.S. government's official web portal to all federal, state and local government web resources and services.